Flag for U.S.A. Weather past 2 weeks in Racine, Wisconsin, U.S.A.

Now
30 °F

Sunny.


Feels Like: 22 °F
Forecast: 21 / 28 °F
Wind: 9 mph from Northeast

Location: Batten International Airport

Current Time: Jan 27, 2015 at 11:39:12 AM

Latest Report: Jan 27, 2015 at 10:53 AM


Visibility: 10 mi

Pressure: 30.22 "Hg

Humidity: 56%

Dew point: 16 °F

Location of RacineLocation

Historic Weather in Racine — Graph

°F

Racine temperature yesterday

Maximum temperature yesterday: 27 °F (at 11:53 AM)
Minimum temperature yesterday: 17 °F (at 5:53 AM)
Average temperature yesterday: 24 °F

Past Weeks' High & Low Weather Summary

 TemperatureHumidityPressure
High43 °F (Jan 17, 10:53 AM)93% (Jan 21, 5:53 AM)30.78 "Hg (Jan 21, 5:53 AM)
Low2 °F (Jan 14, 5:53 AM)47% (Jan 18, 1:53 PM)29.55 "Hg (Jan 17, 2:53 PM)
Average28 °F75%30.08 "Hg
* Reported Jan 12 9:53 AM — Jan 27 9:53 AM, Racine, Weather by CustomWeather, © 2014

Note: Actual official high and low records may vary slightly from our data, if they occured in-between our weather recording intervals... More about our weather records

Advertising

Racine weather history for previous 24 hours

 ConditionsComfort  
Time TempWeatherWind HumidityBarometerVisibility
9:53 AM
Jan 27
29 °FPartly sunny.8 mph64%30.20 "Hg10 mi
8:53 AM28 °FMostly cloudy.9 mph66%30.17 "Hg10 mi
7:53 AM28 °FOvercast.8 mph69%30.14 "Hg10 mi
6:53 AM27 °FOvercast.7 mph75%30.12 "Hg10 mi
5:53 AM28 °FOvercast.8 mph72%30.09 "Hg10 mi
4:53 AM28 °FOvercast.9 mph78%30.06 "Hg10 mi
3:53 AM28 °FOvercast.7 mph81%30.03 "Hg9 mi
2:53 AM26 °FOvercast.6 mph88%30.01 "Hg7 mi
1:53 AM26 °FIce fog.3 mph88%29.99 "Hg5 mi
12:53 AM26 °FIce fog.No wind88%29.97 "Hg6 mi
11:53 PM
Jan 26
27 °FOvercast.No wind81%29.96 "Hg6 mi
10:53 PM26 °FLight snow. Ice fog.No wind88%29.95 "Hg5 mi
9:53 PM26 °FLight snow. Ice fog.3 mph84%29.95 "Hg4 mi
8:53 PM26 °FLight snow. Ice fog.5 mph88%29.95 "Hg4 mi
7:53 PM27 °FLight snow. Ice fog.6 mph85%29.94 "Hg2 mi
6:53 PM26 °FLight snow. Ice fog.5 mph84%29.94 "Hg3 mi
5:53 PM26 °FLight snow. Mostly cloudy.5 mph81%29.94 "Hg3 mi
4:53 PM26 °FLight snow. Mostly cloudy.7 mph74%29.92 "Hg7 mi
3:53 PM26 °FOvercast.7 mph74%29.91 "Hg10 mi
2:53 PM26 °FLight snow. More clouds than sun.8 mph77%29.90 "Hg2 mi
1:53 PM27 °FLight snow. Mostly cloudy.8 mph66%29.90 "Hg8 mi
12:53 PM27 °FMore clouds than sun.8 mph66%29.91 "Hg10 mi
11:53 AM27 °FMostly cloudy.8 mph63%29.93 "Hg10 mi
Weather by CustomWeather, © 2014

See weather overviewHow to use our weather pages